Tracking 32420 objects as of 8-Dec-2025
HD Live streaming from Space Station
objects crossing your sky now

THORAD DELTA 1 DEB

Track THORAD DELTA 1 DEB now!
10-day predictions


NORAD ID: 8174
Int'l Code: 1974-089AQ
Perigee: 1,405.4 km
Apogee: 1,509.3 km
Inclination: 101.9 °
Period: 114.9 minutes
Semi major axis: 7828 km
RCS: 0.0214 m2 (small)
Launch date: November 15, 1974
Source: United States (US)
Launch site: AIR FORCE WESTERN TEST RANGE (AFWTR)

Note: This is SATELLITE DEBRIS
Your satellite tracking list
Your tracking list is empty




NASA's NSSDC Master Catalog

Two Line Element Set (TLE):
1 08174U 74089AQ  25341.93323319  .00000012  00000-0  36058-3 0  9994
2 08174 101.9388 325.7270 0066398 335.2901  52.9275 12.53421719334277
Source of the keplerian elements: AFSPC